(120347) Salacia
ephemeris date magn radius delta ra dec elong phase
Today16 Sep 202520.845.312 AU44.440 AU00h00m+26°47'149.8°0.6°
Opposition3 Oct 202520.845.315 AU44.402 AU23h58m+26°40'155.5°0.5°
(120347) Salacia - 2025-09-16
astro.vanbuitenen.nl


 
-1 year
-1 month
-1 day
Now
+1 day
+1 month
+1 year

The interactive orbit chart above shows the body's path through the solar system and its position at the given date. Green and blue lines are shown perpendicular to the ecliptic plane: Green if the path is above the ecliptic plane, blue if it is below. (Left-click and drag to rotate the view; Right-click and drag to move the view; Use scroll wheel to zoom in our out.)

The orbital elements of Salacia are:

            e (Eccentricity)                : 0.1023362
            a (Semimajor axis)              : 42.1755796
            i (Inclination)                 : 23.92716
            Ω (Longitude of ascending node) : 280.25300
            ω (Argument of perihelion)      : 310.11778
            M (Mean anomaly)                : 132.09258
            Epoch                           : 2025 May 05

            L (Longitude of perihelion)     : 232.92376
            B (Latitude of perihelion)      : -18.06838
            P (Orbital period in years)     : 273.90            
        

The light curve chart below shows the estimated development of the minor planet's magnitude.


The all-sky chart below shows the path of the minor planet over the same period as the light curve. The current position is marked yellow.





The following chart shows the path of the minor planet in the next few days. The field of view is optimized for (~10x50) binoculars and finderscopes. A more printer-friendly version of the same chart can be found below.




Ephemerides:
Date       Time       RA (2000)    DEC (2000)    delta   radius  elong  phase   PA    magn
2025-09-16 00:00 UT   00 00 01.0   +26 47 25    44.440   45.312  149.8    0.6   193   20.8 
2025-09-16 17:59 UT   23 59 57.5   +26 47 11    44.436   45.312  150.2    0.6   192   20.8 
2025-09-17 00:00 UT   23 59 56.4   +26 47 06    44.435   45.312  150.4    0.6   191   20.8 
2025-09-18 00:00 UT   23 59 51.7   +26 46 45    44.431   45.312  150.9    0.6   189   20.8 
2025-09-19 00:00 UT   23 59 47.0   +26 46 24    44.428   45.312  151.4    0.6   188   20.8 
2025-09-20 00:00 UT   23 59 42.4   +26 46 02    44.424   45.312  151.9    0.6   186   20.8 
2025-09-21 00:00 UT   23 59 37.7   +26 45 40    44.421   45.313  152.4    0.6   184   20.8 
2025-09-22 00:00 UT   23 59 33.0   +26 45 17    44.418   45.313  152.8    0.6   182   20.8 
2025-09-23 00:00 UT   23 59 28.3   +26 44 53    44.415   45.313  153.2    0.6   180   20.8 
2025-09-24 00:00 UT   23 59 23.6   +26 44 29    44.412   45.313  153.6    0.6   178   20.8 
2025-09-25 00:00 UT   23 59 18.9   +26 44 04    44.410   45.313  153.9    0.6   176   20.8 
2025-09-26 00:00 UT   23 59 14.2   +26 43 39    44.408   45.313  154.3    0.6   174   20.8 
2025-09-27 00:00 UT   23 59 09.6   +26 43 13    44.406   45.314  154.5    0.5   171   20.8 
2025-09-28 00:00 UT   23 59 04.9   +26 42 46    44.405   45.314  154.8    0.5   169   20.8 
2025-09-29 00:00 UT   23 59 00.2   +26 42 19    44.404   45.314  155.0    0.5   167   20.8 
2025-09-30 00:00 UT   23 58 55.6   +26 41 51    44.403   45.314  155.2    0.5   164   20.8 
2025-10-01 00:00 UT   23 58 51.0   +26 41 22    44.402   45.314  155.3    0.5   162   20.8 
2025-10-02 00:00 UT   23 58 46.3   +26 40 53    44.402   45.314  155.4    0.5   160   20.8 
2025-10-03 00:00 UT   23 58 41.7   +26 40 24    44.402   45.315  155.5    0.5   157   20.8 
2025-10-04 00:00 UT   23 58 37.1   +26 39 54    44.402   45.315  155.5    0.5   155   20.8 
2025-10-05 00:00 UT   23 58 32.6   +26 39 23    44.403   45.315  155.5    0.5   152   20.8 
2025-10-06 00:00 UT   23 58 28.0   +26 38 52    44.403   45.315  155.5    0.5   150   20.8 
2025-10-07 00:00 UT   23 58 23.5   +26 38 21    44.404   45.315  155.4    0.5   148   20.8 
2025-10-08 00:00 UT   23 58 19.0   +26 37 49    44.406   45.316  155.3    0.5   145   20.8 
2025-10-09 00:00 UT   23 58 14.5   +26 37 16    44.407   45.316  155.1    0.5   143   20.8 
2025-10-10 00:00 UT   23 58 10.1   +26 36 43    44.409   45.316  154.9    0.5   140   20.8 
2025-10-11 00:00 UT   23 58 05.6   +26 36 10    44.411   45.316  154.7    0.5   138   20.8 
2025-10-12 00:00 UT   23 58 01.3   +26 35 36    44.414   45.316  154.4    0.5   136   20.8 
2025-10-13 00:00 UT   23 57 56.9   +26 35 01    44.416   45.316  154.1    0.6   134   20.8 
2025-10-14 00:00 UT   23 57 52.6   +26 34 27    44.419   45.317  153.8    0.6   132   20.8 
2025-10-15 00:00 UT   23 57 48.3   +26 33 51    44.423   45.317  153.4    0.6   129   20.8 
2025-10-16 00:00 UT   23 57 44.0   +26 33 16    44.426   45.317  153.0    0.6   127   20.8 


    Terminology:
            
    delta:  distance between minor planet and earth in AU
    radius: distance between minor planet and sun in AU
    magn:   magnitude (brightness) estimate    
    ra:     right ascension in hours (24h = 360deg)
    dec:    declination in degrees
    elong:  elongation in degrees (angle sun-earth-minor planet)    
    phase:  phase angle in degrees (angle sun-minor planet-earth)        
    AU:     Astronomical Unit (mean distance between earth and sun: 149597870.7 km
    

Orbital elements provided by the MPC (Minor Planet Center).
Calculations by a modified version of AAPlus, a C# implementation of the AA+ project by PJ Naughter from the algorithms presented in the book "Astronomical Algorithms" by Jean Meeus.
NGC2000 dso catalog and star labels from VizieR as provided by the Strasbourg astronomical Data Center.
Tycho2 catalog from the ESO archive.